Location: Limoges
(45.8500°N, 1.2500°E)
Time: 04:16:07
(UTC+01:00)

ISS - Visible Passes

Search period start: 12 November 2019 00:00
Search period end: 22 November 2019 00:00
Orbit: 412 x 421 km, 51.6° (Epoch: 12 November)

Date Brightness Start Highest point End Pass type
(mag) Time Alt. Az. Time Alt. Az. Time Alt. Az.
12 Nov -0.7 05:01:35 14° ESE 05:01:35 14° ESE 05:02:07 10° ESE visible
12 Nov -1.9 06:34:31 16° WSW 06:35:08 17° SW 06:37:24 10° S visible
13 Nov -1.6 05:48:32 18° S 05:48:32 18° S 05:49:49 10° SSE visible
21 Nov -1.8 19:14:07 10° SSW 19:15:42 20° S 19:15:42 20° S visible
